Online Auction of Sound, Stage, and Lighting Equipment for Sale in Orange County, CA

Lot #0126: 12' Aluminum Stage Truss

Bidding is closed.
High Bid:$353.00
NA
Bidding Ended: Thu, Jan 10  10:30:40 am PT
High Bidder: lakinetics
Bid Increment: $10.00
Starting Bid: $5.00
Item Location: Fullerton, CA 92833
Item has been viewed 382 times.

12' Aluminum Stage Truss

NOTE: Photos are representative of the lot. 

Bid Date Bid Amount Bidder
Jan 10, 2019 - 10:28:40 AM $353.00 ilakinetics
Jan 10, 2019 - 10:28:40 AM $350.00 iDano1954
Jan 10, 2019 - 10:28:28 AM $335.00 ilakinetics
Jan 10, 2019 - 10:28:28 AM $325.00 iDano1954
Jan 10, 2019 - 10:28:15 AM $311.00 ilakinetics
Jan 10, 2019 - 10:28:15 AM $301.00 iDano1954
Jan 10, 2019 - 10:28:00 AM $281.00 ilakinetics
Jan 10, 2019 - 10:28:00 AM $271.00 iDano1954
Jan 10, 2019 - 10:27:32 AM $261.00 ilakinetics
Jan 10, 2019 - 10:27:32 AM $251.00 iDano1954
Jan 10, 2019 - 10:26:50 AM $205.00 ilakinetics
Jan 10, 2019 - 10:26:50 AM $195.00 iDano1954
Jan 10, 2019 - 7:57:00 AM $150.00 iDano1954
Jan 10, 2019 - 7:57:00 AM $145.00 islsprod
Jan 9, 2019 - 6:46:53 PM $90.00 islsprod
Jan 9, 2019 - 6:46:53 PM $85.00 ifuzztheraven
Jan 9, 2019 - 10:41:13 AM $55.00 ifuzztheraven
Jan 9, 2019 - 10:41:13 AM $50.00 idjcraze88
Jan 9, 2019 - 9:57:02 AM $45.00 ifuzztheraven
Jan 9, 2019 - 8:07:12 AM $40.00 imcannonjr
Jan 8, 2019 - 10:40:37 PM $35.00 itjoneslt
Jan 8, 2019 - 10:40:37 PM $30.00 irecycled
Jan 8, 2019 - 10:40:18 PM $25.00 itjoneslt
Jan 8, 2019 - 10:40:18 PM $20.00 irecycled
Jan 8, 2019 - 10:09:32 PM $15.00 itjoneslt
Jan 8, 2019 - 12:37:35 PM $10.00 iKurt Musser
Jan 8, 2019 - 11:58:32 AM $5.00 iJolaerts
Click on any picture to see a larger image.